Hourly Weather Kattagan

Today, 7 March, Sunday

Time Temperature Precipitation Wind Pressure Humidity
00:00 +3°C° 0.3 mm 4 mps 735 mmHg 94%
01:00 +1°C° 0.3 mm 4 mps 735 mmHg 94%
02:00 +2°C° 0.1 mm 3 mps 735 mmHg 92%
03:00 +3°C° 0.1 mm 2 mps 735 mmHg 90%
04:00 +4°C° 0 mm 1 mps 735 mmHg 89%
05:00 +4°C° 0 mm 1 mps 735 mmHg 87%
06:00 +4°C° 0 mm 1 mps 735 mmHg 86%
07:00 +5°C° 0 mm 1 mps 735 mmHg 84%
08:00 +5°C° 0 mm 2 mps 736 mmHg 78%
09:00 +6°C° 0 mm 2 mps 736 mmHg 73%
10:00 +7°C° 0 mm 3 mps 735 mmHg 70%
11:00 +7°C° 0 mm 3 mps 735 mmHg 68%
12:00 +7°C° 0 mm 4 mps 735 mmHg 66%
13:00 +7°C° 0 mm 4 mps 734 mmHg 63%
14:00 +7°C° 0 mm 4 mps 734 mmHg 61%
15:00 +8°C° 0 mm 4 mps 734 mmHg 59%
16:00 +9°C° 0 mm 3 mps 734 mmHg 57%
17:00 +9°C° 0 mm 3 mps 734 mmHg 59%
18:00 +8°C° 0 mm 3 mps 734 mmHg 62%
19:00 +8°C° 0 mm 3 mps 733 mmHg 65%
20:00 +7°C° 0 mm 3 mps 734 mmHg 66%
21:00 +7°C° 0 mm 3 mps 734 mmHg 67%
22:00 +7°C° 0 mm 2 mps 734 mmHg 68%
23:00 +7°C° 0 mm 3 mps 734 mmHg 68%

Tomorrow, 8 March, Monday

Time Temperature Precipitation Wind Pressure Humidity
00:00 +7°C° 0 mm 3 mps 734 mmHg 69%
01:00 +7°C° 0 mm 3 mps 734 mmHg 69%
02:00 +7°C° 0 mm 3 mps 734 mmHg 70%
03:00 +7°C° 0 mm 3 mps 734 mmHg 71%
04:00 +7°C° 0 mm 3 mps 734 mmHg 72%
05:00 +7°C° 0 mm 3 mps 735 mmHg 71%
06:00 +7°C° 0 mm 3 mps 735 mmHg 71%
07:00 +7°C° 0 mm 3 mps 735 mmHg 71%
08:00 +9°C° 0 mm 3 mps 736 mmHg 65%
09:00 +11°C° 0 mm 3 mps 736 mmHg 59%
10:00 +12°C° 0 mm 3 mps 736 mmHg 53%
11:00 +13°C° 0 mm 3 mps 736 mmHg 50%
12:00 +14°C° 0 mm 3 mps 736 mmHg 46%
13:00 +16°C° 0 mm 3 mps 735 mmHg 42%
14:00 +16°C° 0 mm 3 mps 735 mmHg 40%
15:00 +16°C° 0 mm 2 mps 735 mmHg 38%
16:00 +16°C° 0 mm 2 mps 735 mmHg 36%
17:00 +15°C° 0 mm 1 mps 735 mmHg 41%
18:00 +14°C° 0 mm 1 mps 735 mmHg 46%
19:00 +12°C° 0 mm 0 mps 735 mmHg 51%
20:00 +13°C° 0 mm 1 mps 734 mmHg 52%
21:00 +13°C° 0 mm 1 mps 734 mmHg 52%
22:00 +12°C° 0 mm 1 mps 734 mmHg 52%
23:00 +12°C° 0 mm 2 mps 734 mmHg 54%

Day after tomorrow, 9 March, Tuesday

Time Temperature Precipitation Wind Pressure Humidity
00:00 +12°C° 0 mm 2 mps 733 mmHg 55%
01:00 +10°C° 0 mm 3 mps 733 mmHg 56%
02:00 +10°C° 0 mm 3 mps 732 mmHg 58%
03:00 +10°C° 0 mm 3 mps 732 mmHg 60%
04:00 +10°C° 0 mm 4 mps 731 mmHg 62%
05:00 +10°C° 0 mm 4 mps 731 mmHg 62%
06:00 +10°C° 0 mm 4 mps 731 mmHg 62%
07:00 +10°C° 0 mm 4 mps 731 mmHg 62%
08:00 +12°C° 0 mm 4 mps 731 mmHg 56%
09:00 +14°C° 0 mm 4 mps 731 mmHg 50%
10:00 +15°C° 0 mm 4 mps 731 mmHg 44%
11:00 +18°C° 0 mm 4 mps 730 mmHg 39%
12:00 +19°C° 0 mm 4 mps 730 mmHg 34%
13:00 +20°C° 0 mm 3 mps 729 mmHg 29%
14:00 +20°C° 0 mm 2 mps 729 mmHg 29%
15:00 +21°C° 0 mm 2 mps 728 mmHg 29%
16:00 +22°C° 0 mm 1 mps 728 mmHg 29%
17:00 +21°C° 0 mm 1 mps 728 mmHg 33%
18:00 +18°C° 0 mm 2 mps 728 mmHg 37%
19:00 +17°C° 0 mm 2 mps 728 mmHg 41%
20:00 +17°C° 0.1 mm 2 mps 728 mmHg 44%
21:00 +16°C° 0.1 mm 2 mps 728 mmHg 47%
22:00 +15°C° 0.1 mm 2 mps 727 mmHg 49%
23:00 +15°C° 0.3 mm 2 mps 727 mmHg 52%

10 March, Wednesday

Time Temperature Precipitation Wind Pressure Humidity
00:00 +13°C° 0.3 mm 3 mps 727 mmHg 55%
01:00 +13°C° 0.3 mm 3 mps 727 mmHg 59%
02:00 +13°C° 0 mm 2 mps 728 mmHg 58%
03:00 +13°C° 0 mm 2 mps 728 mmHg 58%
04:00 +12°C° 0 mm 1 mps 728 mmHg 58%
05:00 +12°C° 0 mm 2 mps 729 mmHg 57%
06:00 +11°C° 0 mm 3 mps 730 mmHg 56%
07:00 +10°C° 0 mm 4 mps 731 mmHg 56%
08:00 +11°C° 0 mm 4 mps 732 mmHg 53%
09:00 +10°C° 0 mm 5 mps 732 mmHg 50%
10:00 +12°C° 0 mm 5 mps 733 mmHg 47%
11:00 +13°C° 0 mm 5 mps 733 mmHg 45%
12:00 +13°C° 0 mm 5 mps 733 mmHg 42%
13:00 +13°C° 0 mm 5 mps 733 mmHg 40%
14:00 +13°C° 0.1 mm 5 mps 733 mmHg 43%
15:00 +11°C° 0.1 mm 6 mps 733 mmHg 45%
16:00 +10°C° 0.1 mm 6 mps 733 mmHg 48%
17:00 +10°C° 0.1 mm 6 mps 734 mmHg 50%
18:00 +9°C° 0.1 mm 6 mps 734 mmHg 53%
19:00 +8°C° 0.1 mm 7 mps 735 mmHg 55%
20:00 +7°C° 0 mm 6 mps 735 mmHg 57%
21:00 +7°C° 0 mm 5 mps 735 mmHg 59%
22:00 +7°C° 0 mm 4 mps 736 mmHg 61%
23:00 +6°C° 0 mm 4 mps 736 mmHg 64%

11 March, Thursday

Time Temperature Precipitation Wind Pressure Humidity
00:00 +6°C° 0 mm 4 mps 736 mmHg 67%
01:00 +5°C° 0 mm 4 mps 736 mmHg 70%
02:00 +5°C° 0 mm 3 mps 736 mmHg 73%
03:00 +5°C° 0 mm 2 mps 736 mmHg 76%
04:00 +5°C° 0 mm 2 mps 736 mmHg 79%
05:00 +6°C° 0 mm 1 mps 736 mmHg 78%
06:00 +6°C° 0 mm 1 mps 736 mmHg 76%
07:00 +6°C° 0 mm 1 mps 736 mmHg 75%
08:00 +7°C° 0 mm 1 mps 736 mmHg 65%
09:00 +9°C° 0 mm 1 mps 736 mmHg 56%
10:00 +9°C° 0 mm 2 mps 736 mmHg 46%
11:00 +10°C° 0 mm 2 mps 735 mmHg 40%
12:00 +12°C° 0 mm 2 mps 735 mmHg 34%
13:00 +12°C° 0 mm 3 mps 734 mmHg 29%
14:00 +13°C° 0 mm 2 mps 734 mmHg 27%
15:00 +14°C° 0 mm 2 mps 733 mmHg 25%
16:00 +14°C° 0 mm 2 mps 733 mmHg 24%
17:00 +13°C° 0 mm 1 mps 733 mmHg 28%
18:00 +12°C° 0 mm 1 mps 733 mmHg 33%
19:00 +10°C° 0 mm 0 mps 733 mmHg 38%
20:00 +10°C° 0 mm 2 mps 732 mmHg 38%
21:00 +10°C° 0 mm 3 mps 732 mmHg 38%
22:00 +8°C° 0 mm 4 mps 731 mmHg 38%
23:00 +8°C° 0 mm 4 mps 731 mmHg 43%

12 March, Friday

Time Temperature Precipitation Wind Pressure Humidity
00:00 +8°C° 0 mm 5 mps 730 mmHg 48%
01:00 +8°C° 0 mm 5 mps 729 mmHg 53%
02:00 +8°C° 0 mm 5 mps 729 mmHg 55%
03:00 +8°C° 0 mm 5 mps 728 mmHg 57%
04:00 +8°C° 0 mm 5 mps 727 mmHg 59%
05:00 +8°C° 0 mm 5 mps 727 mmHg 58%
06:00 +9°C° 0 mm 5 mps 726 mmHg 57%
07:00 +10°C° 0 mm 4 mps 726 mmHg 55%
08:00 +10°C° 0 mm 5 mps 726 mmHg 49%
09:00 +13°C° 0 mm 5 mps 726 mmHg 43%
10:00 +15°C° 0 mm 5 mps 726 mmHg 37%
11:00 +15°C° 0.1 mm 6 mps 725 mmHg 37%
12:00 +16°C° 0.1 mm 6 mps 725 mmHg 38%
13:00 +16°C° 0.1 mm 7 mps 725 mmHg 38%
14:00 +17°C° 0 mm 7 mps 725 mmHg 37%
15:00 +19°C° 0 mm 6 mps 725 mmHg 36%
16:00 +20°C° 0 mm 5 mps 724 mmHg 35%
17:00 +17°C° 0.1 mm 6 mps 725 mmHg 46%
18:00 +16°C° 0.1 mm 6 mps 725 mmHg 56%
19:00 +14°C° 0.1 mm 6 mps 726 mmHg 67%
20:00 +14°C° 0.4 mm 5 mps 726 mmHg 72%
21:00 +13°C° 0.4 mm 5 mps 726 mmHg 77%
22:00 +13°C° 0.4 mm 4 mps 726 mmHg 82%
23:00 +13°C° 1.2 mm 4 mps 726 mmHg 83%
Show more